Colorado Springs, CO

2:29 AM MDT on July 24, 2016 (GMT -0600)
Usaf Academy

Weather History for KAFF - April, 2014

Change the Weather History Date:

Wednesday, April 23, 2014

  Actual Average Record
Temperature  
Mean Temperature 52 °F -  
Max Temperature 68 °F 54 °F 76 °F (2012)
Min Temperature 36 °F 31 °F 16 °F (2013)
Degree Days  
Heating Degree Days 13    
Growing Degree Days 2 (Base 50)    
Moisture  
Dew Point 25 °F    
Average Humidity 40    
Maximum Humidity 93    
Minimum Humidity 12    
Precipitation  
Precipitation 0.01 in - - ()
Sea Level Pressure  
Sea Level Pressure 29.64 in    
Wind  
Wind Speed 12 mph (West)    
Max Wind Speed 25 mph    
Max Gust Speed 41 mph    
Visibility 10 miles    
Events Rain    
Averages and records for this station are not official NWS values.
T = Trace of Precipitation, MM = Missing Value Source: NWS Daily Summary

Daily Weather History Graph

Daily Weather History Graph

Search for Another Location

Airport or City:

Trip Planner

Search our weather history database for the weather conditions in past years. The results will help you decide how hot, cold, wet, or windy it might be!

Date:

Astronomy

Apr. 23, 2014 Rise Set
Actual Time 6:11 AM MDT 7:44 PM MDT
Civil Twilight 5:43 AM MDT 8:12 PM MDT
Nautical Twilight 5:09 AM MDT 8:46 PM MDT
Astronomical Twilight 4:33 AM MDT 9:22 PM MDT
Moon 2:41 AM MDT (4/23) 1:58 PM MDT (4/23)
Length of Visible Light 14h 29m
Length of Day
13h 32m
Waning Crescent, 34% of the Moon is Illuminated
Apr 23
Waning Crescent
Apr 29
New
May 6
First Quarter
May 14
Full
May 21
Last Quarter

Hourly Weather History & Observations

Time (MDT) Temp. Windchill Dew Point Humidity Pressure Visibility Wind Dir Wind Speed Gust Speed Precip Events Conditions
12:58 AM 50.7 °F - 34.2 °F 53% 29.54 in 10.0 mi Variable 2.3 mph - N/A   Clear
1:58 AM 48.6 °F - 34.2 °F 58% 29.52 in 10.0 mi SSE 8.1 mph - N/A   Clear
2:58 AM 50.7 °F - 32.9 °F 51% 29.50 in 10.0 mi East 8.1 mph - N/A   Clear
3:58 AM 47.5 °F - 32.2 °F 55% 29.49 in 10.0 mi NE 2.3 mph - N/A   Clear
4:58 AM 53.4 °F - 27.5 °F 37% 29.44 in 10.0 mi Variable 5.8 mph - N/A   Clear
5:15 AM 53.6 °F - 24.8 °F 33% 29.69 in 10.0 mi SE 13.8 mph - N/A   Clear
5:58 AM 52.5 °F - 26.1 °F 36% 29.45 in 10.0 mi SE 5.8 mph - N/A   Clear
6:58 AM 51.4 °F - 25.5 °F 37% 29.47 in 6.0 mi WSW 10.4 mph 23.0 mph N/A   Haze
7:03 AM 53.6 °F - 24.8 °F 33% 29.70 in 10.0 mi Variable 6.9 mph - N/A   Clear
7:58 AM 54.7 °F - 19.9 °F 26% 29.49 in 10.0 mi SSW 8.1 mph - N/A   Clear
8:40 AM 60.8 °F - 23.0 °F 23% 29.71 in 10.0 mi SW 13.8 mph 20.7 mph N/A   Clear
8:55 AM 60.8 °F - 21.2 °F 22% 29.70 in 10.0 mi SW 18.4 mph 26.5 mph N/A   Clear
8:58 AM 61.5 °F - 20.7 °F 21% 29.47 in 10.0 mi WSW 11.5 mph 26.5 mph N/A   Clear
9:03 AM 62.6 °F - 21.2 °F 20% 29.70 in 10.0 mi SW 12.7 mph 26.5 mph N/A   Clear
9:58 AM 64.9 °F - 18.3 °F 17% 29.46 in 10.0 mi SW 20.7 mph 29.9 mph N/A   Clear
10:05 AM 64.4 °F - 19.4 °F 18% 29.69 in 10.0 mi SSW 13.8 mph 31.1 mph N/A   Clear
10:14 AM 64.4 °F - 19.4 °F 18% 29.70 in 10.0 mi WSW 19.6 mph 25.3 mph N/A   Clear
10:24 AM 64.4 °F - 17.6 °F 16% 29.68 in 10.0 mi SSW 20.7 mph 25.3 mph N/A   Clear
10:58 AM 65.1 °F - 18.7 °F 17% 29.44 in 10.0 mi SSW 13.8 mph 23.0 mph N/A   Scattered Clouds
11:05 AM 64.4 °F - 19.4 °F 18% 29.69 in 10.0 mi WSW 16.1 mph 25.3 mph N/A   Partly Cloudy
11:09 AM 66.2 °F - 17.6 °F 15% 29.69 in 10.0 mi SW 12.7 mph 23.0 mph N/A   Partly Cloudy
11:37 AM 68.0 °F - 17.6 °F 15% 29.69 in 10.0 mi South 15.0 mph 27.6 mph N/A   Clear
11:39 AM 68.0 °F - 17.6 °F 15% 29.69 in 10.0 mi SW 16.1 mph 27.6 mph N/A   Clear
11:47 AM 66.2 °F - 14.0 °F 13% 29.68 in 10.0 mi West 12.7 mph 20.7 mph N/A   Clear
11:58 AM 68.0 °F - 14.2 °F 13% 29.44 in 10.0 mi West 25.3 mph 34.5 mph N/A   Partly Cloudy
12:03 PM 68.0 °F - 14.0 °F 12% 29.68 in 10.0 mi WNW 15.0 mph 34.5 mph N/A   Partly Cloudy
12:07 PM 68.0 °F - 15.8 °F 13% 29.67 in 10.0 mi West 21.9 mph 32.2 mph N/A   Partly Cloudy
12:58 PM 68.2 °F - 16.9 °F 14% 29.44 in 10.0 mi West 11.5 mph 17.3 mph N/A   Scattered Clouds
1:07 PM 68.0 °F - 17.6 °F 15% 29.65 in 10.0 mi WSW 13.8 mph - N/A   Scattered Clouds
1:58 PM 67.5 °F - 18.0 °F 15% 29.44 in 10.0 mi South 6.9 mph - N/A   Scattered Clouds
2:58 PM 66.7 °F - 18.9 °F 16% 29.43 in 10.0 mi West 15.0 mph 20.7 mph N/A   Scattered Clouds
3:58 PM 68.0 °F - 16.3 °F 14% 29.42 in 10.0 mi WSW 9.2 mph 21.9 mph N/A   Partly Cloudy
4:58 PM 66.4 °F - 13.3 °F 13% 29.39 in 10.0 mi SSW 8.1 mph - N/A   Partly Cloudy
5:34 PM 64.4 °F - 17.6 °F 16% 29.64 in 10.0 mi SE 24.2 mph 32.2 mph N/A   Clear
5:38 PM 62.6 °F - 21.2 °F 20% 29.64 in 9.0 mi East 23.0 mph 41.4 mph N/A   Clear
5:49 PM 59.0 °F - 17.6 °F 20% 29.64 in 10.0 mi ENE 25.3 mph 34.5 mph N/A   Partly Cloudy
5:58 PM 60.8 °F - 17.8 °F 19% 29.44 in 10.0 mi Variable 6.9 mph 34.5 mph 0.00 in   Partly Cloudy
6:58 PM 58.5 °F - 21.9 °F 24% 29.49 in 10.0 mi West 19.6 mph 35.7 mph N/A   Clear
7:03 PM 59.0 °F - 21.2 °F 23% 29.68 in 10.0 mi NW 12.7 mph 26.5 mph N/A   Clear
7:09 PM 59.0 °F - 21.2 °F 23% 29.69 in 10.0 mi NNW 20.7 mph - N/A   Partly Cloudy
7:14 PM 57.2 °F - 24.8 °F 29% 29.70 in 10.0 mi NNE 23.0 mph 35.7 mph N/A   Partly Cloudy
7:22 PM 51.8 °F - 35.6 °F 54% 29.72 in 10.0 mi NNW 21.9 mph 35.7 mph N/A   Mostly Cloudy
7:58 PM 46.2 °F 38.5 °F 36.9 °F 70% 29.63 in 10.0 mi North 20.7 mph 27.6 mph N/A   Scattered Clouds
8:04 PM 46.4 °F 38.3 °F 37.4 °F 71% 29.80 in 10.0 mi North 23.0 mph 31.1 mph N/A   Light Drizzle
8:14 PM 44.6 °F 36.4 °F 37.4 °F 76% 29.81 in 10.0 mi North 20.7 mph 29.9 mph N/A Rain Light Rain
8:19 PM 44.6 °F 36.4 °F 37.4 °F 76% 29.82 in 10.0 mi NNW 20.7 mph 26.5 mph N/A Rain Light Rain
8:54 PM 39.2 °F 29.8 °F 35.6 °F 87% 29.86 in 10.0 mi NNW 18.4 mph 27.6 mph N/A Rain Light Rain
8:58 PM 38.5 °F 28.6 °F 35.4 °F 89% 29.72 in 10.0 mi NNW 19.6 mph 27.6 mph 0.00 in Rain Light Rain
9:05 PM 37.4 °F 28.2 °F 35.6 °F 93% 29.87 in 10.0 mi NNW 16.1 mph 27.6 mph N/A   Clear
9:08 PM 37.4 °F 28.5 °F 35.6 °F 93% 29.87 in 10.0 mi NNW 15.0 mph 27.6 mph N/A Rain Light Rain
9:36 PM 37.4 °F 29.3 °F 35.6 °F 93% 29.86 in 10.0 mi NNW 12.7 mph - N/A   Partly Cloudy
9:58 PM 37.6 °F 29.1 °F 35.4 °F 92% 29.74 in 10.0 mi NNW 13.8 mph - 0.01 in   Partly Cloudy
10:38 PM 37.4 °F 26.6 °F 33.8 °F 87% 29.90 in 10.0 mi North 21.9 mph 27.6 mph N/A   Mostly Cloudy
10:58 PM 36.7 °F 27.6 °F 34.3 °F 91% 29.77 in 10.0 mi NNW 15.0 mph - N/A   Overcast
11:35 PM 37.4 °F 29.3 °F 33.8 °F 87% 29.94 in 10.0 mi NNW 12.7 mph - N/A Rain Light Rain
11:58 PM 36.1 °F 27.7 °F 34.2 °F 93% 29.81 in 10.0 mi NW 12.7 mph - 0.00 in Rain Light Rain